St. Joseph, KS

9:18 AM CDT on June 25, 2018 (GMT -0500)
Rosecrans Memorial

Weather History for KSTJ - October, 2017

Change the Weather History Date:

Friday, October 20, 2017

  Actual Average Record
Temperature  
Mean Temperature 63 °F 53 °F  
Max Temperature 77 °F 65 °F 90 °F (2003)
Min Temperature 48 °F 41 °F 22 °F (1989)
Degree Days  
Heating Degree Days 2 12  
Month to date heating degree days 91 182  
Since 1 July heating degree days 120 262  
Cooling Degree Days 0 0  
Month to date cooling degree days 37 18  
Year to date cooling degree days 1271 1217  
Growing Degree Days 14 (Base 50)    
Moisture  
Dew Point 56 °F    
Average Humidity 77    
Maximum Humidity 100    
Minimum Humidity 54    
Precipitation  
Precipitation 0.00 in 0.09 in 2.91 in (1949)
Month to date precipitation 2.19 1.86  
Year to date precipitation 23.47 31.58  
Sea Level Pressure  
Sea Level Pressure 29.94 in    
Wind  
Wind Speed 13 mph (South)    
Max Wind Speed 28 mph    
Max Gust Speed 36 mph    
Visibility 10 miles    
Events Rain    
T = Trace of Precipitation, MM = Missing Value Source: NWS Daily Summary

Daily Weather History Graph

Daily Weather History Graph

Search for Another Location

Airport or City:

Astronomy

Oct. 20, 2017 Rise Set
Actual Time 7:35 AM CDT 6:32 PM CDT
Civil Twilight 7:08 AM CDT 7:00 PM CDT
Nautical Twilight 6:36 AM CDT 7:31 PM CDT
Astronomical Twilight 6:05 AM CDT 8:02 PM CDT
Moon 8:15 AM CDT (10/20) 7:28 PM CDT (10/20)
Length of Visible Light 11h 51m
Length of Day
10h 57m
New Moon, 1% of the Moon is Illuminated
Oct 20
New Moon
Oct 27
First Quarter
Nov 4
Full
Nov 10
Last Quarter
Nov 18
New

Hourly Weather History & Observations

Time (CDT) Temp. Dew Point Humidity Pressure Visibility Wind Dir Wind Speed Gust Speed Precip Events Conditions
12:53 AM 59.0 °F 54.0 °F 83% 30.05 in 10.0 mi South 5.8 mph - N/A   Clear
1:53 AM 57.0 °F 53.1 °F 87% 30.05 in 10.0 mi South 5.8 mph - N/A   Clear
2:53 AM 54.0 °F 52.0 °F 93% 30.05 in 10.0 mi South 5.8 mph - N/A   Clear
3:53 AM 54.0 °F 52.0 °F 93% 30.04 in 10.0 mi South 4.6 mph - N/A   Clear
4:53 AM 53.1 °F 51.1 °F 93% 30.04 in 10.0 mi SSE 4.6 mph - N/A   Clear
5:53 AM 53.1 °F 51.1 °F 93% 30.05 in 10.0 mi South 6.9 mph - N/A   Clear
6:53 AM 54.0 °F 53.1 °F 97% 30.05 in 10.0 mi South 8.1 mph - N/A   Clear
7:53 AM 55.9 °F 53.1 °F 90% 30.05 in 10.0 mi South 9.2 mph - N/A   Clear
8:53 AM 61.0 °F 54.0 °F 78% 30.04 in 10.0 mi South 9.2 mph - N/A   Clear
9:53 AM 63.0 °F 55.0 °F 75% 30.04 in 10.0 mi South 9.2 mph 18.4 mph N/A   Clear
10:53 AM 66.0 °F 55.9 °F 70% 30.01 in 10.0 mi South 11.5 mph 24.2 mph N/A   Clear
11:53 AM 72.0 °F 57.0 °F 59% 29.98 in 10.0 mi SSW 16.1 mph 23.0 mph N/A   Clear
12:53 PM 75.0 °F 57.9 °F 55% 29.95 in 10.0 mi South 19.6 mph 27.6 mph N/A   Clear
1:53 PM 75.9 °F 59.0 °F 56% 29.90 in 10.0 mi South 21.9 mph 27.6 mph N/A   Clear
2:53 PM 75.9 °F 59.0 °F 56% 29.87 in 10.0 mi South 19.6 mph 29.9 mph N/A   Clear
3:53 PM 75.9 °F 59.0 °F 56% 29.84 in 10.0 mi South 21.9 mph 32.2 mph 0.00 in Rain Light Rain
4:53 PM 75.0 °F 59.0 °F 57% 29.83 in 10.0 mi SSE 17.3 mph 29.9 mph 0.00 in Rain Light Rain
5:53 PM 73.0 °F 59.0 °F 61% 29.83 in 10.0 mi South 16.1 mph 31.1 mph 0.00 in Rain Light Rain
6:53 PM 70.0 °F 59.0 °F 68% 29.82 in 10.0 mi South 12.7 mph - 0.00 in Rain Light Rain
7:53 PM 69.1 °F 57.9 °F 68% 29.82 in 10.0 mi South 13.8 mph - 0.00 in Rain Light Rain
8:53 PM 68.0 °F 57.9 °F 70% 29.81 in 10.0 mi South 11.5 mph 23.0 mph 0.00 in Rain Light Rain
9:53 PM 66.9 °F 57.9 °F 73% 29.81 in 10.0 mi South 15.0 mph 21.9 mph 0.00 in Rain Light Rain
10:53 PM 66.9 °F 57.0 °F 70% 29.81 in 10.0 mi South 12.7 mph - 0.00 in Rain Light Rain
11:53 PM 68.0 °F 57.9 °F 70% 29.81 in 10.0 mi South 17.3 mph 26.5 mph 0.00 in Rain Light Rain